Club Time Trial Results 2011 Season

24 Aug 2011
Evening 10
Q10/38
Marshalls:
 
Name Time Points H'cap points Handicap H'cap time Club Comment
Jeremy Temple00:24:00VC Elan
Stewart King00:24:14103Still @ 01:4700:22:27Ashford Wheelers
Andrew Macey00:24:2092Still @ 01:5200:22:28Ashford Wheelers
Thomas Morris00:24:218Still @ 01:3900:22:42Ashford Wheelers
Keith Lyon00:25:317Still @ 02:5800:22:33Ashford Wheelers
Mick Claydon 00:25:5667Still @ 03:4900:22:07Ashford Wheelers
Ray Firth 00:26:1856Still @ 04:0700:22:11Ashford Wheelers
Nick Brisley 00:26:40Ashford Tri Club
Martyn Postlethwaite00:26:4048Now @ 04:4000:21:59Ashford WheelersCourse Best By 1 Seconds
Andy Robinson 00:26:413Still @ 04:0700:22:34Ashford Wheelers
Richard Roe00:27:0521Still @ 04:3400:22:31Ashford Wheelers
Mick James 00:27:0719Now @ 05:0700:21:44Ashford WheelersCourse Best By 16 Seconds,Personal Best By 16 Seconds
Alec Mayes 00:27:13Still @ 04:2700:22:46Ashford Wheelers
Andy Cornwell 00:27:364Still @ 05:1100:22:25Ashford Wheelers
Terry Foreman00:27:37Ashford Tri Club
Neil Vining00:27:42Ashford Tri Club
Roger Freear00:27:48Still @ 04:4200:23:06Ashford Wheelers
Andrew Nye 00:28:13Still @ 05:0500:23:08Ashford Wheelers
Craig Ewing00:28:35Rye & District Wheelers
David Roe 00:28:59Still @ 06:0300:22:56Ashford Wheelers
Julie Bryant00:29:48Rye & District Wheelers
Matt Swaffer00:30:3110Now @ 08:3100:21:08Ashford WheelersCourse Best By 52 Seconds,Personal Best By 52 Seconds
Roger Swaffer 00:31:106Still @ 08:5900:22:11Ashford Wheelers
Brenda Davies00:31:33Rye & District Wheelers
17 Aug 2011
Evening 10
Q10/38
Marshalls:
 
Name Time Points H'cap points Handicap H'cap time Club Comment
Lee Buckman00:23:10108Still @ 01:0200:22:08Ashford Wheelers
Steve Hopkins00:23:1293Still @ 00:5100:22:21Ashford Wheelers
Tim Sheppard00:23:138Still @ 00:3000:22:43Ashford Wheelers
Jeremy Temple00:24:12VC Elan
Thomas Morris00:24:197Still @ 01:3900:22:40Ashford Wheelers
Stewart King00:24:206Still @ 01:4700:22:33Ashford Wheelers
Andrew Macey00:24:2151Still @ 01:5200:22:29Ashford Wheelers
Andy Branson 00:24:414Still @ 01:3200:23:09Ashford Wheelers
Mark Amon00:24:44Rye & District Wheelers
Richard Sharman 00:24:573Still @ 02:2400:22:33Ashford Wheelers
Adrian Wills00:25:242Set @ 03:24Ashford WheelersCourse Best By 74 Seconds,Personal Best By 74 Seconds
Dave Spice00:25:30TriSpirit Team
Mick Claydon 00:25:5915Still @ 03:4900:22:10Ashford Wheelers
Keith Lyon00:26:01Still @ 02:5800:23:03Ashford Wheelers
Ray Firth 00:26:283Still @ 04:0700:22:21Ashford Wheelers
Alan Morris00:26:318Still @ 04:2300:22:08Ashford Wheelers
Andy Robinson 00:26:46Still @ 04:0700:22:39Ashford Wheelers
Richard Roe00:26:494Still @ 04:3400:22:15Ashford Wheelers
Alec Mayes 00:27:20Still @ 04:2700:22:53Ashford Wheelers
Mick James 00:27:326Still @ 05:2300:22:09Ashford Wheelers
Roger Freear00:27:42Still @ 04:4200:23:00Ashford Wheelers
Terry Foreman00:28:03Ashford Tri Club
Andrew Nye 00:28:08Still @ 05:0500:23:03Ashford Wheelers
Andy Cornwell 00:28:09Still @ 05:1100:22:58Ashford Wheelers
Don Dewar 00:28:139Now @ 06:1300:21:44Ashford WheelersCourse Best By 16 Seconds,Personal Best By 16 Seconds
Julie Bryant00:29:20Rye & District Wheelers
Neil Vining00:29:22Ashford Tri Club
Sue Spice00:29:29TriSpirit Team
Roger Swaffer 00:30:5910Now @ 08:5900:21:24Ashford WheelersCourse Best By 36 Seconds,Personal Best By 36 Seconds
Craig EwingDNFRye & District Wheelers
Brenda DaviesDNFRye & District Wheelers
10 Aug 2011
Evening 10
Q10/38
Marshalls:
 
Name Time Points H'cap points Handicap H'cap time Club Comment
Tim Sheppard00:23:2310Still @ 00:3000:22:53Ashford Wheelers
Lee Buckman00:23:2796Still @ 01:0200:22:25Ashford Wheelers
Thomas Morris00:23:44810Still @ 01:3900:22:05Ashford Wheelers
Stewart King00:24:0379Still @ 01:4700:22:16Ashford Wheelers
Andy Branson 00:24:0564Still @ 01:3200:22:33Ashford Wheelers
Jeremy Temple00:24:23VC Elan
Keith Lyon00:25:2257Still @ 02:5800:22:24Ashford Wheelers
Andrew Macey00:25:225Still @ 01:5200:23:30Ashford Wheelers
Mick Claydon 00:26:2633Still @ 03:4900:22:37Ashford Wheelers
Alan Morris00:26:5325Still @ 04:2300:22:30Ashford Wheelers
Martyn Postlethwaite00:27:0318Still @ 04:4100:22:22Ashford Wheelers
Roger Freear00:27:33Still @ 04:4200:22:51Ashford Wheelers
Andrew Nye 00:27:462Still @ 05:0500:22:41Ashford Wheelers
Alec Mayes 00:27:50Still @ 04:2700:23:23Ashford Wheelers
Mick James 00:28:22Still @ 05:2300:22:59Ashford Wheelers
Don Dewar 00:29:131Still @ 06:2900:22:44Ashford Wheelers
Julie Bryant00:29:42Rye & District Wheelers
Lissa Mitchell 00:30:12Ashford Tri Club
Paul Sheppard00:30:16Still @ 07:2900:22:47Ashford Wheelers
Stefan Wood00:32:02Still @ 09:0200:23:00Ashford Wheelers
Roger Swaffer 00:32:21Still @ 09:3500:22:46Ashford Wheelers
Brenda Davies00:32:34Rye & District Wheelers
03 Aug 2011
Evening 10
Q10/38
Marshalls:
 
Name Time Points H'cap points Handicap H'cap time Club Comment
Steve Hopkins00:22:57107Still @ 00:5100:22:06Ashford Wheelers
Lee Buckman00:23:0299Now @ 01:0200:21:47Ashford WheelersCourse Best By 13 Seconds
Steve Clarke 00:23:3389Now @ 01:3300:21:47Ashford Wheelers
Thomas Morris00:23:4776Still @ 01:3900:22:08Ashford Wheelers
Jeremy Temple00:24:06VC Elan
Stewart King00:24:0763Still @ 01:4700:22:20Ashford Wheelers
Andrew Macey00:24:185Still @ 01:5200:22:26Ashford Wheelers
Trevor Bridge00:24:50TriSpirit Team
Keith Lyon00:25:1843Still @ 02:5800:22:20Ashford Wheelers
Mark Amon00:25:25Rye & District Wheelers
Mick Claydon 00:25:49310Now @ 03:4900:21:40Ashford WheelersCourse Best By 16 Seconds
Jason Ware00:26:012Still @ 02:2400:23:37Ashford Wheelers
Ray Firth 00:26:3011Still @ 04:0700:22:23Ashford Wheelers
Andy Robinson 00:27:15Still @ 04:0700:23:08Ashford Wheelers
Andy Cornwell 00:27:275Still @ 05:1100:22:16Ashford Wheelers
Terry Foreman00:27:31Ashford Tri Club
Alec Mayes 00:27:33Still @ 04:2700:23:06Ashford Wheelers
Richard Roe00:27:55Still @ 04:3400:23:21Ashford Wheelers
Mick James 00:27:58Still @ 05:2300:22:35Ashford Wheelers
Neil Vining00:28:39Ashford Tri Club
Will Farrell00:29:43Ashford Tri Club
Adrian Knight 00:29:46Still @ 07:0300:22:43Ashford Wheelers
Andrew Nye 00:30:58Still @ 05:0500:25:53Ashford Wheelers
Stefan Wood00:31:194Still @ 09:0200:22:17Ashford Wheelers
Scott Bignall00:31:51Taster Ride
Brenda Davies00:31:59Rye & District Wheelers
Roger Swaffer 00:32:25Still @ 09:3500:22:50Ashford Wheelers
Ian BignellDNFTaster Ride
27 Jul 2011
Evening 10
Q10/38
Marshalls:
 
Name Time Points H'cap points Handicap H'cap time Club Comment
Tim Sheppard00:22:30106Now @ 00:3000:21:36Ashford WheelersCourse Best By 24 Seconds
Steve Hopkins00:22:519Now @ 00:5100:21:52Ashford WheelersCourse Best By 8 Seconds,Personal Best By 8 Seconds
Lee Buckman00:23:1584Now @ 01:1500:21:39Ashford WheelersCourse Best By 21 Seconds
Andy Branson 00:23:327Now @ 01:3200:21:58Ashford WheelersCourse Best By 2 Seconds
Jeremy Temple00:23:33VC Elan
Thomas Morris00:23:3969Now @ 01:3900:21:06Ashford WheelersCourse Best By 54 Seconds,Personal Best By 49 Seconds
Steve Clarke 00:23:4657Now @ 01:4600:21:35Ashford Wheelers
Stewart King00:23:4742Now @ 01:4700:21:43Ashford WheelersCourse Best By 17 Seconds,Personal Best By 12 Seconds
Andrew Macey00:24:023Still @ 01:5200:22:10Ashford Wheelers
Trevor Bridge00:24:26TriSpirit Team
Richard Sharman 00:24:442Still @ 02:2400:22:20Ashford Wheelers
Keith Lyon00:24:581Now @ 02:5800:21:59Ashford Wheelers
Ray Firth 00:26:073Now @ 04:0700:21:40Ashford Wheelers
Andy Robinson 00:26:07Now @ 04:0700:21:49Ashford WheelersCourse Best By 11 Seconds,Personal Best By 11 Seconds
Brian Marsh00:26:13Set @ 04:13Ashford WheelersCourse Best By 67 Seconds,Personal Best By 67 Seconds
Michael Newman 00:26:23Ashford Tri Club
Alec Mayes 00:26:271Now @ 04:2700:21:45Ashford Wheelers
Terry Foreman00:26:32Ashford Tri Club
Martyn Postlethwaite00:26:41Now @ 04:4100:21:48Ashford WheelersCourse Best By 12 Seconds
Nick Brisley 00:26:41Ashford Tri Club
Roger Freear00:26:45Still @ 04:4200:22:03Ashford Wheelers
Andrew Nye 00:27:055Now @ 05:0500:21:37Ashford Wheelers
Andy Cornwell 00:27:11Now @ 05:1100:21:47Ashford Wheelers
Mick James 00:27:23Now @ 05:2300:21:55Ashford WheelersCourse Best By 5 Seconds,Personal Best By 5 Seconds
Don Dewar 00:28:2910Now @ 06:2900:21:01Ashford WheelersCourse Best By 59 Seconds,Personal Best By 22 Seconds
David Roe 00:28:46Still @ 06:0300:22:43Ashford Wheelers
Adrian Knight 00:29:04Still @ 07:0300:22:01Ashford Wheelers
Lissa Mitchell 00:29:40Ashford Tri Club
Julie Bryant00:29:47Rye & District Wheelers
Brenda Davies00:30:46Rye & District Wheelers
Matt Swaffer00:31:23Set @ 09:23Ashford WheelersCourse Best By 186 Seconds,Personal Best By 186 Seconds
Roger Swaffer 00:31:359Now @ 09:3500:21:06Ashford WheelersCourse Best By 54 Seconds,Personal Best By 54 Seconds
Joe Haffenden00:32:31Taster Ride
Lesley Newman 00:34:45Ashford Tri Club
Amanda Nicholson 00:36:47Ashford Tri Club
Simon Gibbs DNFBiketech
20 Jul 2011
Evening 10
Q10/38
Marshalls:
 
Name Time Points H'cap points Handicap H'cap time Club Comment
Tim Sheppard00:22:54105Now @ 00:5400:21:53Ashford WheelersCourse Best By 7 Seconds
Steve Hopkins00:22:5995Now @ 00:5900:21:53Ashford WheelersCourse Best By 7 Seconds,Personal Best By 7 Seconds
Jeremy Temple00:23:45VC Elan
Andrew Macey00:24:168Still @ 01:5200:22:24Ashford Wheelers
Lee Buckman00:24:237Still @ 01:3600:22:47Ashford Wheelers
Richard Sharman 00:24:386Still @ 02:2400:22:14Ashford Wheelers
Keith Lyon00:24:5957Now @ 02:5900:21:44Ashford Wheelers
Robert Giles00:25:10Rye & District Wheelers
Sam Best00:25:46Ashford Tri Club
Mick Claydon 00:26:1442Still @ 04:0900:22:05Ashford Wheelers
Andy Robinson 00:26:2133Still @ 04:1800:22:03Ashford Wheelers
Ray Firth 00:26:2726Now @ 04:2700:21:47Ashford Wheelers
Roger Freear00:26:5011Still @ 04:4200:22:08Ashford Wheelers
Paul Britton 00:27:11Still @ 04:5400:22:17Ashford Wheelers
Martyn Postlethwaite00:27:16Still @ 04:5300:22:23Ashford Wheelers
Andrew Nye 00:27:2810Now @ 05:2800:19:52Ashford Wheelers
Mick James 00:27:289Now @ 05:2800:21:33Ashford WheelersCourse Best By 27 Seconds,Personal Best By 27 Seconds
Andy Cornwell 00:27:48Still @ 05:2400:22:24Ashford Wheelers
Neil Vining00:28:02Ashford Tri Club
Adrian Knight 00:29:038Now @ 07:0300:21:36Ashford Wheelers
Julie Bryant00:29:22Rye & District Wheelers
Don Dewar 00:29:361Still @ 07:2800:22:08Ashford Wheelers
Stefan Wood00:31:33Still @ 09:0200:22:31Ashford Wheelers
Roger Swaffer 00:32:29Set @ 10:29Ashford WheelersCourse Best By 23 Seconds,Personal Best By 23 Seconds
13 Jul 2011
Evening 10
Q10/38
Marshalls:
 
Name Time Points H'cap points Handicap H'cap time Club Comment
Nick Leech 00:22:15In Gear
Tim Sheppard00:23:02102Still @ 01:0100:22:01Ashford Wheelers
Steve Hopkins00:23:0696Now @ 01:0600:21:41Ashford Wheelers
Lee Buckman00:23:448Still @ 01:3600:22:08Ashford Wheelers
Andy Branson 00:23:557Still @ 01:3400:22:21Ashford Wheelers
Mark Amon00:24:07Rye & District Wheelers
Stewart King00:24:0761Still @ 02:0400:22:03Ashford Wheelers
Richard Sharman 00:24:2458Now @ 02:2400:21:33Ashford WheelersCourse Best By 27 Seconds,Personal Best By 27 Seconds
Trevor Bridge00:24:43TriSpirit Team
Keith Lyon00:25:254Still @ 03:1500:22:10Ashford Wheelers
Sam Best00:25:33Ashford Tri Club
Don Houghton00:25:34Thornton Road Club
Mick Claydon 00:26:183Still @ 04:0900:22:09Ashford Wheelers
Andy Robinson 00:26:352Still @ 04:1800:22:17Ashford Wheelers
Roger Freear00:26:4214Now @ 04:4200:21:48Ashford Wheelers
Richard Roe00:26:44Still @ 04:3400:22:10Ashford Wheelers
Martyn Postlethwaite00:26:539Now @ 04:5300:21:29Ashford WheelersCourse Best By 31 Seconds
Paul Britton 00:26:545Now @ 04:5400:21:43Ashford WheelersCourse Best By 17 Seconds,Personal Best By 17 Seconds
Alec Mayes 00:27:17Still @ 04:4200:22:35Ashford Wheelers
Andy Cornwell 00:27:38Still @ 05:2400:22:14Ashford Wheelers
Mick James 00:27:557Now @ 05:5500:21:38Ashford WheelersCourse Best By 6 Seconds,Personal Best By 6 Seconds
Will Farrell00:29:23Ashford Tri Club
Paul Sheppard00:29:2910Now @ 07:2900:21:25Ashford WheelersCourse Best By 35 Seconds,Personal Best By 35 Seconds
Andrew Nye 00:29:363Now @ 07:3600:21:59Ashford Wheelers
Julie Bryant00:30:04Rye & District Wheelers
Martin Hadleigh00:30:30Taster Ride
Brenda Davies00:31:46Rye & District Wheelers
Stefan Wood00:32:11Still @ 09:0200:23:09Ashford Wheelers
Roger Swaffer 00:32:52Taster Ride
06 Jul 2011
Evening 10
Q10/38
Marshalls:
 
Name Time Points H'cap points Handicap H'cap time Club Comment
Tim Sheppard00:23:20103Still @ 01:0100:22:19Ashford Wheelers
Steve Hopkins00:23:3297Still @ 01:2500:22:07Ashford Wheelers
Lee Buckman00:23:4885Still @ 01:3600:22:12Ashford Wheelers
Jeremy Temple00:23:57VC Elan
Andy Branson 00:24:217Still @ 01:3400:22:47Ashford Wheelers
Trevor Bridge00:24:49TriSpirit Team
Richard Sharman 00:25:1262Still @ 02:5100:22:21Ashford Wheelers
Keith Lyon00:25:2356Still @ 03:1500:22:08Ashford Wheelers
Mark Amon00:25:43Rye & District Wheelers
Terry Foreman00:26:46Ashford Tri Club
Richard Roe00:26:4645Still @ 04:3400:22:12Ashford Wheelers
Mick Claydon 00:27:013Still @ 04:0900:22:52Ashford Wheelers
Brian Marsh00:27:20Taster Ride
Martyn Postlethwaite00:27:2428Now @ 05:2400:20:58Ashford WheelersCourse Best By 62 Seconds,Personal Best By 40 Seconds
Paul Britton 00:27:3611Still @ 05:1100:22:25Ashford Wheelers
Ray Firth 00:27:38Still @ 04:4000:22:58Ashford Wheelers
Andy Robinson 00:27:39Still @ 04:1800:23:21Ashford Wheelers
Roger Freear00:27:51Still @ 04:5400:22:57Ashford Wheelers
Andy Cornwell 00:27:54Still @ 05:2400:22:30Ashford Wheelers
Alec Mayes 00:28:01Still @ 04:4200:23:19Ashford Wheelers
Mick James 00:28:179Now @ 06:1700:19:41Ashford Wheelers
David Roe 00:29:12Still @ 06:0300:23:09Ashford Wheelers
Wayne James00:30:2110Now @ 08:2100:18:54Ashford Wheelers
Andrew Nye 00:30:29Still @ 07:3700:22:52Ashford Wheelers
Adrian Knight 00:30:50Still @ 07:2700:23:23Ashford Wheelers
Roger Swaffer 00:33:19Taster Ride
Stefan Wood00:33:25Still @ 09:0200:24:23Ashford Wheelers
Matt Swaffer00:34:29Taster Ride
22 Jun 2011
Evening 10
Q10/38
Marshalls:
 
Name Time Points H'cap points Handicap H'cap time Club Comment
Nick Leech 00:22:37In Gear
Tim Sheppard00:23:01108Now @ 01:0100:21:58Ashford WheelersCourse Best By 2 Seconds,Personal Best By 2 Seconds
Richard McVey00:24:30Adalta
Richard Sharman 00:24:51910Now @ 02:5100:21:36Ashford WheelersCourse Best By 20 Seconds,Personal Best By 20 Seconds
Thomas Morris00:24:5286Still @ 02:3300:22:19Ashford Wheelers
Stewart King00:25:0073Still @ 02:0400:22:56Ashford Wheelers
Keith Lyon00:25:2267Still @ 03:1500:22:07Ashford Wheelers
Jason Ware00:25:2651Still @ 02:2400:23:02Ashford Wheelers
Trevor Bridge00:25:42TriSpirit Team
Robert Giles00:25:55Rye & District Wheelers
Richard Roe00:26:3449Now @ 04:3400:21:44Ashford Wheelers
Terry Foreman00:27:05Ashford Tri Club
Paul Britton 00:27:5235Still @ 05:1100:22:41Ashford Wheelers
Andy Cornwell 00:28:1624Still @ 05:2400:22:52Ashford Wheelers
Mick James 00:28:38Ashford Wheelers 2nd Claim
Stefan Wood00:32:0212Still @ 09:0200:23:00Ashford Wheelers
15 Jun 2011
Evening 10
Q10/38
Marshalls:
 
Name Time Points H'cap points Handicap H'cap time Club Comment
Dave Wheeler00:22:18In Gear
Tim Sheppard00:23:08107Still @ 01:0300:22:05Ashford Wheelers
Andy Branson 00:23:4893Still @ 01:3400:22:14Ashford Wheelers
Richard McVey00:23:48Adalta
Andrew Macey00:24:0584Still @ 01:5200:22:13Ashford Wheelers
Don Houghton00:24:53Thornton Road Club
Richard Sharman 00:25:15710Now @ 03:1500:21:32Ashford Wheelers
Alex Milne00:25:20Ashford Tri Club
Keith Lyon00:25:2765Still @ 03:1500:22:12Ashford Wheelers
Jason Ware00:25:276Still @ 02:2400:23:03Ashford Wheelers
Keir Williams 00:26:07Ashford Tri Club
Mick Claydon 00:26:3042Still @ 04:0900:22:21Ashford Wheelers
Terry Foreman00:26:32Ashford Tri Club
Alan Morris00:26:3336Still @ 04:2300:22:10Ashford Wheelers
Richard Roe00:26:5028Now @ 04:5000:21:48Ashford Wheelers
Roger Freear00:26:5419Now @ 04:5400:21:40Ashford Wheelers
Alec Mayes 00:27:16Still @ 04:4200:22:34Ashford Wheelers
Mick James 00:28:06Ashford Wheelers 2nd Claim
Andy Cornwell 00:28:33Still @ 05:2400:23:09Ashford Wheelers
Paul Sheppard00:30:321Still @ 08:0400:22:28Ashford Wheelers
Ray Firth 00:31:07Still @ 04:4000:26:27Ashford Wheelers
Lissa Mitchell 00:31:34Ashford Tri Club
Brenda Davies00:31:39Rye & District Wheelers
08 Jun 2011
Evening 10
Q10/38
Marshalls:
 
Name Time Points H'cap points Handicap H'cap time Club Comment
Tim Sheppard00:23:05109Still @ 01:0300:22:02Ashford Wheelers
Steve Hopkins00:23:2898Still @ 01:2500:22:03Ashford Wheelers
Jeremy Temple00:23:31VC Elan
Lee Buckman00:23:3988Still @ 01:3600:22:03Ashford Wheelers
Andy Branson 00:23:5672Still @ 01:3400:22:22Ashford Wheelers
Andrew Macey00:24:226Still @ 01:5200:22:30Ashford Wheelers
Stewart King00:24:315Still @ 02:0400:22:27Ashford Wheelers
Thomas Morris00:24:4544Still @ 02:3300:22:12Ashford Wheelers
Steve Clarke 00:24:454Still @ 02:1100:22:34Ashford Wheelers
Trevor Bridge00:25:15TriSpirit Team
Keith Lyon00:25:3123Still @ 03:1500:22:16Ashford Wheelers
Richard Sharman 00:25:43110Now @ 03:4300:21:56Ashford Wheelers
Paul Crudge00:26:33Set @ 04:33Ashford Wheelers
Sam Best00:26:39Ashford Tri Club
Andy Robinson 00:26:48Still @ 04:1800:22:30Ashford Wheelers
Alan Morris00:26:55Still @ 04:2300:22:32Ashford Wheelers
Richard Roe00:27:058Still @ 05:0200:22:03Ashford Wheelers
Roger Freear00:27:178Still @ 05:1400:22:03Ashford Wheelers
Paul Britton 00:27:40Still @ 05:1100:22:29Ashford Wheelers
Mick James 00:28:36Ashford Wheelers 2nd Claim
Alec Mayes 00:28:40Still @ 04:4200:23:58Ashford Wheelers
Martyn Postlethwaite00:29:06Still @ 06:2600:22:40Ashford Wheelers
Andy Cornwell 00:29:13Still @ 05:2400:23:49Ashford Wheelers
Neil Vining00:29:16Ashford Tri Club
Will Farrell00:29:43Ashford Tri Club
Andrew Nye 00:30:031Still @ 07:3700:22:26Ashford Wheelers
Julie Bryant00:30:37Rye & District Wheelers
Wayne James00:30:50Ashford Wheelers 2nd Claim
Stefan Wood00:32:05Still @ 09:0200:23:03Ashford Wheelers
Brenda Davies00:32:34Rye & District Wheelers
01 Jun 2011
Evening 10
Q10/38
Marshalls:
 
Name Time Points H'cap points Handicap H'cap time Club Comment
Dave Wheeler00:21:51In Gear
Tim Sheppard00:23:0310Now @ 01:0300:21:56Ashford WheelersCourse Best By 3 Seconds,Personal Best By 1 Seconds
Andy Branson 00:23:3496Now @ 01:3400:21:03Ashford WheelersCourse Best By 17 Seconds
Lee Buckman00:23:408Still @ 01:3600:22:04Ashford Wheelers
Andrew Macey00:24:077Still @ 01:5200:22:15Ashford Wheelers
Steve Clarke 00:24:1169Now @ 02:1100:20:44Ashford Wheelers
Paul Clark00:24:37Police Sport UK
Thomas Morris00:24:405Still @ 02:3300:22:07Ashford Wheelers
Jason Ware00:24:434Still @ 02:2400:22:19Ashford Wheelers
Keith Lyon00:25:15310Now @ 03:1500:20:22Ashford Wheelers
Mick Claydon 00:26:092Now @ 04:0900:21:54Ashford Wheelers
Sam Best00:26:12Ashford Tri Club
Andy Robinson 00:26:1814Now @ 04:1800:21:33Ashford WheelersCourse Best By 27 Seconds,Personal Best By 27 Seconds
Alan Morris00:26:235Now @ 04:2300:21:10Ashford WheelersCourse Best By 50 Seconds,Personal Best By 50 Seconds
Ray Firth 00:26:43Still @ 04:4000:22:03Ashford Wheelers
Lee Gladwell00:27:00Ashford Tri Club
Alec Mayes 00:27:00Still @ 04:4200:22:18Ashford Wheelers
Richard Roe00:27:023Now @ 05:0200:21:35Ashford Wheelers
Dave Yarranton00:27:40Still @ 05:1100:22:29Ashford Wheelers
Andy Cornwell 00:27:44Still @ 05:2400:22:20Ashford Wheelers
David Roe 00:28:031Now @ 06:0300:21:44Ashford Wheelers
Mick James 00:28:13Ashford Wheelers 2nd Claim
Neil Vining00:29:12Ashford Tri Club
Sam Robinson00:29:21Set @ 07:21Ashford WheelersCourse Best,Personal Best
Adrian Knight 00:29:272Now @ 07:2700:21:39Ashford Wheelers
Don Dewar 00:29:288Now @ 07:2800:20:52Ashford WheelersCourse Best By 68 Seconds,Personal Best By 68 Seconds
Will Farrell00:29:33Ashford Tri Club
Andrew Nye 00:29:377Now @ 07:3700:21:00Ashford Wheelers
Paul Sheppard00:30:04Set @ 08:04Ashford WheelersCourse Best,Personal Best
Julie Bryant00:30:14Rye & District Wheelers
Brenda Davies00:30:27Rye & District Wheelers
Stefan Wood00:31:02Now @ 09:0200:21:49Ashford WheelersCourse Best By 11 Seconds,Personal Best By 11 Seconds
25 May 2011
Evening 10
Q10/38
Marshalls:
 
Name Time Points H'cap points Handicap H'cap time Club Comment
Dave Wheeler00:21:41In Gear
Tim Sheppard00:23:07101Now @ 01:0700:21:38Ashford Wheelers
Lee Buckman00:23:369Now @ 01:3600:21:39Ashford WheelersCourse Best By 21 Seconds
Andrew Macey00:23:5284Now @ 01:5200:21:27Ashford WheelersCourse Best By 33 Seconds,Personal Best By 33 Seconds
Stewart King00:24:0479Now @ 02:0400:20:50Ashford WheelersCourse Best By 33 Seconds,Personal Best By 10 Seconds
Jason Ware00:24:2463Now @ 02:2400:21:32Ashford WheelersCourse Best By 28 Seconds,Personal Best By 28 Seconds
Don Houghton00:24:29Thornton Road Club
Thomas Morris00:24:335Now @ 02:3300:21:42Ashford WheelersCourse Best By 15 Seconds
Trevor Bridge00:24:34TriSpirit Team
Andy Branson 00:24:404Still @ 02:3100:22:09Ashford Wheelers
Michael Pumphrey00:24:59Thornton Road Club
Mark Amon00:24:59Rye & District Wheelers
Robert Giles00:25:08Rye & District Wheelers
Keir Williams 00:25:24Ashford Tri Club
Tom Morton00:25:28Police Sport UK
Mick Claydon 00:26:153Now @ 04:1500:21:56Ashford Wheelers
Ray Firth 00:26:4022Now @ 04:4000:21:35Ashford Wheelers
Sam Best00:26:41Ashford Tri Club
Andy Robinson 00:26:451Now @ 04:4500:21:47Ashford WheelersCourse Best By 13 Seconds,Personal Best By 13 Seconds
Alec Mayes 00:27:06Still @ 04:4200:22:24Ashford Wheelers
Paul Britton 00:27:1110Now @ 05:1100:20:26Ashford WheelersCourse Best By 29 Seconds,Personal Best By 29 Seconds
Dave Yarranton00:27:115Now @ 05:1100:21:26Ashford WheelersCourse Best By 34 Seconds,Personal Best By 34 Seconds
Andy Cornwell 00:27:246Now @ 05:2400:21:20Ashford Wheelers
Colin Tuckwell00:27:27Thornton Road Club
Richard Roe00:27:27Now @ 05:2700:21:42Ashford Wheelers
Alex Milne00:27:30Ashford Tri Club
Mick James 00:28:01Ashford Wheelers 2nd Claim
Joseph Chasseaud00:28:187Now @ 06:1800:21:13Ashford Wheelers
David Roe 00:28:198Now @ 06:1900:20:54Ashford Wheelers
Will Farrell00:29:34Ashford Tri Club
Wayne James00:29:36Ashford Wheelers 2nd Claim
Julie Bryant00:29:38Rye & District Wheelers
Lissa Mitchell 00:30:11Ashford Tri Club
Brenda Davies00:31:12Rye & District Wheelers
Stefan Wood00:31:13Set @ 09:13Ashford WheelersCourse Best By 222 Seconds,Personal Best By 222 Seconds
Andrew Nye 00:31:26Still @ 08:3700:22:49Ashford Wheelers
Alison Nye00:31:55TriSpirit Team
18 May 2011
Evening 10
Q10/38
Marshalls:
 
Name Time Points H'cap points Handicap H'cap time Club Comment
Nick Leech 00:22:23In Gear
Tim Sheppard00:23:29103Now @ 01:2900:21:32Ashford Wheelers
Jeremy Temple00:23:32VC Elan
Steve Hopkins00:23:449Still @ 01:2500:22:19Ashford Wheelers
Andrew Macey00:24:258Now @ 02:2500:21:56Ashford WheelersCourse Best By 4 Seconds,Personal Best By 4 Seconds
Andy Branson 00:24:3172Now @ 02:3100:21:42Ashford Wheelers
Thomas Morris00:24:516Now @ 02:5100:21:47Ashford Wheelers
Jason Ware00:24:5258Now @ 02:5200:21:12Ashford WheelersCourse Best By 48 Seconds,Personal Best By 48 Seconds
Paul Morton00:25:00Police Sport UK
Tom Morton00:25:03Police Sport UK
Robert Giles00:25:04Rye & District Wheelers
Paul Clark00:25:18In Gear
Jon Colbear00:25:264Set @ 03:26Ashford WheelersCourse Best,Personal Best
Richard Sharman 00:25:473Now @ 03:4700:21:50Ashford Wheelers
Keir Williams 00:26:18Ashford Tri Club
Mick Claydon 00:26:1927Now @ 04:1900:21:15Ashford Wheelers
Sam Best00:27:01Ashford Tri Club
Tristan Stevens00:27:02Police Sport UK
Ray Firth 00:27:0515Now @ 05:0500:21:25Ashford Wheelers
Andy Robinson 00:27:051Still @ 04:5800:22:07Ashford Wheelers
Terry Foreman00:27:10Ashford Tri Club
Alan Morris00:27:139Now @ 05:1300:21:07Ashford WheelersCourse Best By 17 Seconds,Personal Best By 17 Seconds
Roger Freear00:27:141Now @ 05:1400:21:44Ashford Wheelers
Alex Carson00:27:30Set @ 05:30Ashford WheelersCourse Best,Personal Best
Dave Yarranton00:27:4510Now @ 05:4500:20:33Ashford WheelersCourse Best By 33 Seconds,Personal Best By 33 Seconds
Alec Mayes 00:28:06Still @ 04:4200:23:24Ashford Wheelers
Martyn Postlethwaite00:28:265Now @ 06:2600:21:25Ashford WheelersCourse Best By 35 Seconds,Personal Best By 35 Seconds
Mick James 00:28:40Ashford Tri Club
Wayne James00:29:15Ashford Tri Club
David Roe 00:29:256Now @ 07:2500:21:24Ashford Wheelers
Andrew Nye 00:30:43Still @ 08:3700:22:06Ashford Wheelers
Julie Bryant00:30:54Rye & District Wheelers
Lissa Mitchell 00:31:44Ashford Tri Club
Brenda Davies00:32:10Rye & District Wheelers
Stefan Wood00:34:55Taster Ride
11 May 2011
Evening 10 - SFACC Interclub
Q10/2
Marshalls:
 
Name Time Points H'cap points Handicap H'cap time Club Comment
Nick Dibble00:23:26Climb on Bike CC
Lee Buckman00:23:59108Still @ 01:5700:22:02Ashford WheelersCourse Best
Steve Hopkins00:24:0993Still @ 01:2500:22:44Ashford WheelersCourse Best By 26 Seconds
Jack Edwards00:24:21San Fairy Ann CC
Dave Richardson00:24:368Set @ 02:36Ashford WheelersCourse Best,Personal Best
Tim Sheppard00:24:3774Still @ 01:5700:22:40Ashford WheelersCourse Best By 30 Seconds
John Bosley00:24:53San Fairy Ann CC
Lee Sayers00:24:57San Fairy Ann CC
Dave Stocker00:24:58San Fairy Ann CC
Andy Branson 00:25:0967Still @ 02:4900:22:20Ashford WheelersCourse Best By 94 Seconds
Stewart King00:25:1459Now @ 03:1400:19:43Ashford WheelersCourse Best
Nick Malins00:25:15San Fairy Ann CC
Andrew Macey00:25:2641Still @ 02:2900:22:57Ashford WheelersCourse Best
Steve Clarke 00:25:273Set @ 03:27Ashford Wheelers
Thomas Morris00:25:3725Still @ 03:0400:22:33Ashford WheelersCourse Best
Damian Blunt00:25:421Set @ 03:42Ashford WheelersCourse Best,Personal Best By 377 Seconds
Jason Ware00:26:12San Fairy Ann CC
Matthew Waters00:26:48San Fairy Ann CC
Kate Bosley00:26:49San Fairy Ann CC
Ian Sedge00:26:55San Fairy Ann CC
George Osborne00:27:11San Fairy Ann CC
Mick Claydon 00:27:356Still @ 05:0400:22:31Ashford WheelersCourse Best
Andy Robinson 00:27:522Still @ 04:5800:22:54Ashford WheelersCourse Best
Andrew Durling00:27:55San Fairy Ann CC
Alan Morris00:28:06Set @ 06:06Ashford WheelersCourse Best
Roland Potts00:28:12San Fairy Ann CC
Ray Firth 00:29:03Still @ 05:4000:23:23Ashford WheelersCourse Best
Dave Yarranton00:29:12Set @ 07:12Ashford WheelersCourse Best
Richard Roe00:29:30Still @ 05:4500:23:45Ashford WheelersCourse Best
Bernadette Comfrey00:29:31San Fairy Ann CC
Andy Cornwell 00:29:35Still @ 06:0400:23:31Ashford WheelersCourse Best
Mike Perry00:29:48San Fairy Ann CC
David Wiggins00:29:51San Fairy Ann CC
David Roe 00:30:0110Now @ 08:0100:19:22Ashford Wheelers
Donna Hopper00:30:01San Fairy Ann CC
Colin Shea00:30:05San Fairy Ann CC
Mark McConnell00:30:15San Fairy Ann CC
Mick James 00:30:36Set @ 08:36Ashford WheelersCourse Best
Caroline Nye00:30:37Set @ 08:37Ashford WheelersCourse Best,Personal Best By 420 Seconds
Philip Harris00:30:45San Fairy Ann CC
Jodie Hope00:32:10San Fairy Ann CC
Don Dewar 00:32:15Still @ 08:3600:23:39Ashford WheelersCourse Best
Wayne James00:33:27Set @ 11:27Ashford WheelersCourse Best
04 May 2011
Evening 10
Q10/38
Marshalls:
 
Name Time Points H'cap points Handicap H'cap time Club Comment
Dave Wheeler00:22:18In Gear
Nick Leech 00:22:27In Gear
Steve Hopkins00:23:3510Still @ 01:2500:22:10Ashford Wheelers
Jeremy Temple00:23:53VC Elan
Lee Buckman00:23:5792Now @ 01:5700:21:45Ashford WheelersCourse Best By 14 Seconds,Personal Best By 3 Seconds
Tim Sheppard00:23:5797Now @ 01:5700:21:12Ashford Wheelers
Andrew Macey00:24:29710Now @ 02:2900:17:07Ashford WheelersCourse Best By 20 Seconds,Personal Best By 20 Seconds
Andy Branson 00:24:4968Now @ 02:4900:20:18Ashford Wheelers
Thomas Morris00:25:0453Now @ 03:0400:21:43Ashford Wheelers
Tom Morton00:25:10Police Sport UK
Trevor Bridge00:25:13TriSpirit Team
Paul Morton00:25:21Police Sport UK
Jason Ware00:25:4046Now @ 03:4000:21:34Ashford WheelersCourse Best By 14 Seconds,Personal Best By 14 Seconds
Richard Sharman 00:25:573Set @ 03:57Ashford Wheelers
Keith Lyon00:26:532Set @ 04:53Ashford Wheelers
Andy Robinson 00:27:181Still @ 04:5800:22:20Ashford Wheelers
Terry Foreman00:27:22Ashford Tri Club
Alec Mayes 00:27:29Still @ 04:4200:22:47Ashford Wheelers
Roger Freear00:27:304Now @ 05:3000:21:39Ashford Wheelers
Sam Best00:27:34Ashford Tri Club
Ray Firth 00:27:409Now @ 05:4000:19:42Ashford Wheelers
Andy Cornwell 00:28:04Still @ 06:0400:22:00Ashford Wheelers
Dave Yarranton00:28:18Taster Ride
Paul Britton 00:28:48Still @ 06:4500:22:03Ashford Wheelers
Martyn Postlethwaite00:29:015Now @ 07:0100:21:38Ashford WheelersCourse Best By 22 Seconds,Personal Best By 22 Seconds
Joseph Chasseaud00:29:05Set @ 07:05Ashford Wheelers
Mick James 00:29:29Ashford Tri Club
Sue Spice00:30:00TriSpirit Team
Adrian Knight 00:30:05Still @ 07:4800:22:17Ashford Wheelers
Don Dewar 00:30:361Now @ 08:3600:21:47Ashford WheelersCourse Best By 13 Seconds,Personal Best By 13 Seconds
Andrew Nye 00:30:37Now @ 08:3700:21:54Ashford Wheelers
Wayne James00:31:10Ashford Tri Club
Lissa Mitchell 00:31:33Ashford Tri Club
Brenda Davies00:32:55Rye & District Wheelers
Alison Nye00:33:12TriSpirit Team
27 Apr 2011
Evening 10
Q10/38
Marshalls:
 
Name Time Points H'cap points Handicap H'cap time Club Comment
Nick Leech 00:22:11In Gear
Dave Wheeler00:22:25In Gear
Steve Hopkins00:23:2510Set @ 01:25Ashford Wheelers
Jeremy Temple00:23:46VC Elan
Robert Giles00:24:05Rye & District Wheelers
Lee Buckman00:24:129Set @ 02:12Ashford Wheelers
Tim Sheppard00:24:458Set @ 02:45Ashford Wheelers
Mark Amon00:24:50Rye & District Wheelers
Mike Hawkins00:24:58Velocity Multisport
Trevor Bridge00:25:14TriSpirit Team
Thomas Morris00:25:217Set @ 03:21Ashford Wheelers
Tom Morton00:25:33Police Sport UK
Jason Ware00:26:066Set @ 04:06Ashford Wheelers
Andy Branson 00:26:315Set @ 04:31Ashford Wheelers
Alec Mayes 00:26:424Set @ 04:42Ashford Wheelers
Andy Robinson 00:26:583Set @ 04:58Ashford WheelersCourse Best,Personal Best
Mick Claydon 00:27:042Set @ 05:04Ashford Wheelers
Gary Fissenden00:27:221Set @ 05:22Ashford Wheelers
Stewart King00:27:31Set @ 05:31Ashford Wheelers
Richard Roe00:27:45Set @ 05:45Ashford Wheelers
Roger Freear00:27:51Set @ 05:51Ashford Wheelers
Andy Cornwell 00:28:04Set @ 06:04Ashford Wheelers
Dave Yarranton00:28:25Taster Ride
Gary Godden 00:28:44Rye & District Wheelers
Paul Britton 00:28:45Set @ 06:45Ashford Wheelers
Andrew Macey00:29:22Set @ 07:22Ashford Wheelers
Martyn Postlethwaite00:29:23Set @ 07:23Ashford WheelersCourse Best,Personal Best
Adrian Knight 00:29:48Set @ 07:48Ashford Wheelers
Ray Firth 00:29:58Set @ 07:58Ashford Wheelers
Sue Spice00:30:24TriSpirit Team
Andrew Nye 00:30:43Set @ 08:43Ashford Wheelers
Don Dewar 00:30:49Set @ 08:49Ashford WheelersCourse Best By 64 Seconds,Personal Best By 64 Seconds
Brenda Davies00:31:36Rye & District Wheelers
David Roe 00:32:39Set @ 10:39Ashford Wheelers
Alex CarsonDNFTaster Ride
Keith LyonDNFAshford Tri Club
Alison NyeDNFTriSpirit Team
Mick James DNFAshford Tri Club

Season 2022 Season 2021 Season 2020 Season 2019 Season 2018 Season 2017 Season 2016 Season 2015 Season 2014 Season 2013 Season 2012 Season 2010 Season 2009 Season 2008 Season 2007